UND ROADS 1

Satellite information

Favourite Embed

Satellite Type and Status

PAYLOADIN ORBIT

Key statistics

Satellite UND ROADS 1 at a glance.

Uptime

75

Days in orbit

Revolutions

≈ 15.2

Per day

Orbit

SSO

Sun Synchronous Orbit

Inclination

97.4

Latest

Satellite identification and parameters

Extended collection of information and parameters for UND ROADS 1.

Object identification

Identified? True

Debris? False

Object name: UND ROADS 1

International designator: 2025-135H

Object number (NORAD): 64535

Object ID (CCSDS): 64535

Country: UNITED STATES OF AMERICA (US)

Current information (Y/N): Y

RCS size: SMALL

Orbital parameters

Period: 94.883 minutes

Inclination: 97.447 deg

SMA: 6891.038 km

Apoapsis: 517.152 km

Periapsis: 508.655 km

RAAN: 2.1118 deg

Eccentricy: 0.00061653

Argument of periapsis: 92.2996 deg

Mean anomaly: 267.8944 deg

Mean motion: 15.17664426 rev/day

Mean motion (dot): 0.00009261 rev/day2

B* drag term: 0.00046275379 1/REarth

Two-line elements (TLE)

Creation date: Sept. 6, 2025, 2:09 a.m.

Reference frame: TEME

Reference center: EARTH

Epoch: Sept. 5, 2025, 8:50 p.m. UTC

TLE line 0: 0 UND ROADS 1

TLE line 1: 1 64535U 25135H 25248.86826401 .00009261 00000-0 46275-3 0 9990

TLE line 2: 2 64535 97.4470 2.1118 0006165 92.2996 267.8944 15.17664426 11660

Live tracking on map

Real-time ground track for satellite UND ROADS 1.

In-orbit conjunctions

There are no conjunctions computed for UND ROADS 1, at the moment. Check back to stay up to date, as we update our databases every day.

Go to all conjunctions

Associated space launch

Dedicated rideshare flight to a sun-synchronous orbit with dozens of small microsatellites and nanosatellites for commercial and government customers.

UND ROADS 1 was lifted into orbit during the mission ‘Falcon 9 Block 5 | Transporter 14 (Dedicated SSO Rideshare)’, on board a Falcon 9 space rocket.

The launch took place on June 23, 2025, 9:25 p.m. from Space Launch Complex 4E.

For more information about the launch, click the button.

Launch to space Falcon 9 Block 5 | Transporter 14 (Dedicated SSO Rideshare)
Falcon 9 Block 5 | Transporter 14 (Dedicated SSO Rideshare)

Agency: SpaceX

Status: Launch Successful

Launch date: June 23, 2025, 9:25 p.m. UTC

Rocket: Falcon 9

Launch pad: Space Launch Complex 4E

Location: Vandenberg SFB, CA, USA

...

Latest news about this satellite

News about space launch
A European spacecraft company flies its vehicle, then loses it after reentry

"This partial success reflects both ambition and the inherent risks of innovation."

News about space launch
The Exploration Company claims partial success of Mission Possible reentry spacecraft

The Exploration Company said it achieved “partial success” on a test flight of a reentry capsule but lost the spacecraft before it splashed down. The post The Exploration Company claims partial success of Mission Possible reentry spacecraft appeared firs...

News about space launch
The Exploration Company Declares Mission Possible a “Partial Success”

In-space logistics startup The Exploration Company has declared its Mission Possible flight both a partial success and a partial failure following a successful reentry. As The Exploration Company works toward the inaugural flight of its full-scale Nyx spa...


Newsletter sign-up

Weekly statistics, charts and insights to help you stay on top of the space industry.